Powrót do katalogu

THORAD AGENA D DEB

AktywnyLEO
NORAD 18616·DEBRIS·🇺🇸 United States

Wystrzelony Sep 30, 1969 z Vandenberg Space Force Base

Loading…

Następne Przeloty (najbliższe 24 godziny)

TLE

ŚwieżeSource: Space-Track

Epoka: Sep 14, 2026, 08:26 UTC

1 18616U 69082LB  26257.35159874  .00000172  00000-0  16873-3 0  9999
2 18616  70.1410  27.0232 0159027 144.7487 216.4260 13.88004361956906

Śledź THORAD AGENA D DEB w czasie rzeczywistym z AllMySat

Download on the App Store